100LL.CA
Aviation Fuel Pricing for Canadians
Please upgrade your browser - Tested with IE9, FireFox, Chrome, Safari

Fuel Airports Other Help
Prices Economy Info List METAR/TAF Kneeboard Help

Reference Airport: CALGARY/SPRINGBANK, AB
N 51 06 19  W 114 22 17
Provinces to show:

CYBW CALGARY/SPRINGBANK, AB
WEATHER
METARCYBW 221500Z AUTO 32005KT 9SM CLR 13/07 A2996 RMK ICE MISG SLP150 DENSITY ALT 4700FT
TAFTAF CYBW 221151Z 2212/2224 31005KT P6SM SKC BECMG 2216/2218 19005KT FM221800 19005KT P6SM SCT230 FM222000 18008KT P6SM BKN190 BECMG 2222/2224 24010G20KT BKN120 RMK FCST BASED ON AUTO OBS. NXT FCST BY 221800Z
OTHER SITES

FlightAware

FltPlan

Google Maps

SkyVector
FUEL
FBO 100LL
member
100LL
public
JETA MOGAS
Springbank Aero Services (2024-06-05)2.7102.170
  Note: http://springbank.aero/
Territorial Fuel Sales (2023-08-09)2.6802.200
  Note: Self-serve tanks at end of TWY E (formerly Central Aviation)
Calgary Flying Club (2024-03-11)2.1502.400
  Note: Discounts for CFC members
Canada Flight Supplement - CYBW
(opens in new tab/window)


Please Send Updates!

Desktop Version ]  [ Mobile Version ]  [ Disclaimer ]